Showing default

PORCUPINE 2, 1577

Orbit data source: Space-Track

PORCUPINE 2, 1577 is a payload satellite owned by NRL (US) in LEO that was launched on Fri, 13 Aug 1965 UTC via a THOR ABLESTAR launch vehicle from the Air Force Western Test Range (AFWTR). Payload-class satellites include a variety of spacecraft equipped with specific instruments for various scientific and technological missions. These include communications satellites like Starlink; space stations such as the ISS; scientific satellites like the Hubble; Earth observation satellites from companies like Planet Labs, Umbra, and HawkEye 360; GPS; miniature CubeSats for education and research; and military/defense satellites.

Loading next visibility...
Identifier
1577, 1965-065J
Orbit
LEO
Country
Flag of USUS
Related business
Manufacturer
NRL
Mission
Spacecraft
Bus & Motor
SURCAL, Unknown motor
Mass
5 kg wet, 5 kg dry
Launch date (UTC)
1965-08-13 (60 years ago)
Launch vehicle
THOR ABLESTAR
Launch site
Air Force Western Test Range (AFWTR)
Object type
Payload
Rocket body
Debris
Shape & HBR
Unknown
Radar Cross Section
Medium (>0.1 m² and <1 m²)

Expand to show TLE details & history
Last TLE update: 11 hours ago

TLE from 11 hours ago
0 PORCUPINE 2
1 01577U 65065J   25298.79824177  .00000168  00000-0  30484-3 0  9990
2 01577  90.0206 211.4990 0071682  45.9435  12.9153 13.36202832931351
Epoch: 2025-10-25T19:09Z
TLE epoch observation values (Epoch: 2025-10-25T19:09:28.088Z)
Latitude
59.13494°
Longitude
-110.32595°
Altitude
1,081.148 km
Speed
7.343 km/s
True Right ascension
14h 05m 51s
True Declination
58° 59' 23"
Sunlit
Object was in daylight at epoch
Visualization orbit readout
Latitude
Unknown
Longitude
Unknown
Altitude
Unknown
Speed
Unknown
Apparent Right ascension
Unknown
Apparent Declination
Unknown
Sunlit
N/A
Visualization observer readout
Local Sidereal Time
01:37:45
Azimuth
Unknown
Elevation
Unknown
Doppler factor
Unknown
Orbital elements
Apogee altitude
1,174.279 km
Perigee altitude
1,066.775 km
Semi-major axis
7,498.664 km
Eccentricity
0.00717
Inclination
90.0206°
RAAN
211.499°
Arg. of periapsis
45.9435°
True anomaly
13.10051°
Mean anomaly
12.9153°
Eccentric anomaly
13.00774°
Mean motion
3.34247 °/min
Orbital period
107.7 mins
BSTAR
0.00030484
Loading maneuver chart data...
Computing Atmospheric mass density...
Loading historical data...
Loading historical data...
Loading historical data...
Loading historical data...
Loading historical data...
Loading historical data...
Loading historical data...

Documentation

Showing up to 5 results
|